RH
56 62 64 64 69 71 72 68 72 77 71 69 73 70 64 64 56 56 54 61 76 91
62 65 69 70 73 76 78 82 80 80 82 83 77 80 75 72 68 61 57 59 71 91
68 70 71 77 80 79 82 86 87 84 89 90 78 80 77 83 65 89 73 76 81 87
70 75 76 82 84 84 86 86 90 90 93 97 93 83 74 74 68 65 73 86 82 76
76 80 80 86 87 87 89 90 90 93 94 94 94 85 74 79 74 75 71 76 80 77
82 82 85 87 87 89 92 94 96 98 94 93 79 74 84 92 81 97 98 88 79 83
84 90 91 90 90 93 94 96 97 98 97 87 75 80 96 95 97 96 95 95 89 89
88 90 92 93 95 96 95 96 97 97 97 85 77 81 73 89 97 98 96 99 99 99
92 94 94 93 98 98 97 96 97 97 98 98 87 88 95 98 99 98 99 99 98 98
95 97 95 96 98 98 98 96 97 97 98 98 97 98 98 98 98 98 98 99 99 98
97 97 96 98 98 98 98 97 97 97 97 98 98 98 98 98 98 98 97 96 95 94
94 93 96 94 97 98 98 97 97 97 97 98 98 98 98 98 98 98 96 95 94 93
85 90 92 95 94 98 98 97 97 98 97 97 98 98 98 98 97 97 97 98 98 98
77 84 90 93 95 97 98 98 98 98 98 97 98 97 97 97 98 98 98 98 98 97